Regional Weather Roundup
Issued by NWS Charleston, WV

Home | Current Version | Previous Version | Graphics & Text | Print | Product List | Glossary On
Versions: 1 2 3 4 5 6 7 8 9 10 11 12 13 14 15 16 17 18 19 20 21 22 23 24 25 26 27 28 29 30 31 32 33 34 35 36 37 38 39 40 41 42 43 44 45 46 47 48 49 50
000
ASUS41 KRLX 220610
RWRRLX
West Virginia Regional Weather Roundup
National Weather Service Charleston WV
200 AM EDT FRI MAY 22 2015

Note: "fair" indicates few or no clouds below 12,000 feet with no
significant weather and/or obstructions to visibility.

WVZ003-220700-
Northern Panhandle of West Virginia

CITY           SKY/WX    TMP DP  RH WIND       PRES   REMARKS
WHEELING       NOT AVBL
$$

WVZ009-220700-
Northwest West Virginia

CITY           SKY/WX    TMP DP  RH WIND       PRES   REMARKS
PARKERSBURG    CLEAR     45  41  86 S3        30.13S
$$

WVZ006-220700-
Western West Virginia

CITY           SKY/WX    TMP DP  RH WIND       PRES   REMARKS
HUNTINGTON     CLEAR     45  44  97 SW6       30.14S
$$

WVZ015-220700-
West Central West Virginia

CITY           SKY/WX    TMP DP  RH WIND       PRES   REMARKS
CHARLESTON       N/A     47  46  97 SW5       30.14R FOG
$$

WVZ022-031-220700-
North Central West Virginia

CITY           SKY/WX    TMP DP  RH WIND       PRES   REMARKS
CLARKSBURG     CLEAR     44  43  96 SW6       30.09S
MORGANTOWN     CLEAR     46  42  86 VRB3      30.08S FOG
$$

WVZ025-035-042-045-220700-
Southern West Virginia

CITY           SKY/WX    TMP DP  RH WIND       PRES   REMARKS
BECKLEY        CLOUDY    46  42  86 NW8       30.13R
LOGAN          FOG       46  46 100 CALM      30.11S VSB<1/4
BLUEFIELD      CLOUDY    47  42  83 NW6       30.13S
LEWISBURG      CLOUDY    48  44  84 SW5       30.10S
$$

WVZ047-220700-
Northern Mountains of West Virginia

CITY           SKY/WX    TMP DP  RH WIND       PRES   REMARKS
ELKINS         CLOUDY    47  41  80 NW8       30.09S
$$

WVZ052-220700-
Eastern Panhandle of West Virginia

CITY           SKY/WX    TMP DP  RH WIND       PRES   REMARKS
MARTINSBURG    CLOUDY    52  44  74 W10       30.01R
PETERSBURG     CLEAR     50  40  70 NW5       30.06S
$$


USA.gov is the U.S. government's official web portal to all federal, state and local government web resources and services.